Startseite
Über Mich
AHP4
Galerie
Sehschlangen
Tourenbuch
Bookmarks
Elektronik
Bewertung
Geschichten
[Tagesmessung] [Jahreswerte] [Information]

Messwerte vom 11.05.2022

Die letzten Messwerte von 23:58:46 Uhr:
KategorieMesswert
Temperatur [°C]17
Luftdruck [mBar]991
Sonneneinstrahlung0
Wind [km/h]0 aus Süd
Niederschlag [l/m²]0
rel.Luftfeucht.69.9%
CO2 [ppm]808

Diagramme
Messwerte vom 11.05.2022
Tagesaggregation
KategorieMinimumMaximumSchnittSumme
Temperatur [°C]143321.5563
Luftdruck [mBar]991999994.4458
Sonneneinstrahlung247132.9625
Wind [km/h]25
rF [%]2996.363.61
Niederschlag [l/m²]0.515
CO2 [ppm]401850686.6
Einordnung alsVegetationstag
Sommertag
Heißer Tag

Messungen an benachbarten Tagen: Zur Jahresaggregation 2022
Tabelle aller Messwerte
UhrzeitTemperatur [°C]Luftdruck [mBar]SonneWind [km/h]RichtungRegen [l/m²]rF [%]CO2 [ppm]
00:01:46 18 999 0 5 N 0 74.6 796
00:04:48 17 999 0 8 N 0 75.3 787
00:07:44 17 999 0 1 N 0 75.6 785
00:10:46 17 999 0 4 NO 0 75.4 782
00:13:45 17 999 0 5 N 0 76.3 779
00:16:46 17 999 0 7 0 77.1 776
00:19:48 17 999 0 3 NW 0 78.4 772
00:22:48 17 998 0 2 NW 0 78.9 770
00:25:46 17 998 0 2 SO 0 79.2 768
00:28:49 17 999 0 3 NW 0 79.8 762
00:31:48 16 998 0 3 NO 0 79.8 761
00:34:49 16 998 0 6 N 0 80 759
00:37:49 16 998 0 0 NO 0 80.4 766
00:40:47 16 999 0 2 NO 0 79.8 766
00:43:46 16 998 0 2 SO 0 80.1 766
00:46:49 16 998 0 0 NW 0 80.1 755
00:49:46 16 998 0 1 O 0 81.6 751
00:52:48 16 998 0 2 NW 0 81.9 753
00:55:47 16 999 0 0 O 0 81.5 743
00:58:47 16 998 0 1 NW 0 81.5 744
01:01:46 16 998 0 1 O 0 81.5 746
01:04:47 16 998 0 0 O 0 82.1 752
01:07:49 16 998 0 0 NW 0 81.5 750
01:10:48 16 998 0 0 NO 0 81.1 753
01:13:49 16 998 0 0 SO 0 81.3 758
01:16:47 16 998 0 0 NO 0 82.5 757
01:19:48 16 998 0 0 SO 0 81.6 759
01:22:47 16 998 0 0 SO 0 81.2 757
01:25:46 15 998 0 0 NO 0 81.1 759
01:28:48 15 998 0 1 N 0 82 754
01:31:48 15 999 0 0 NO 0 82.9 751
01:34:50 15 999 0 0 NO 0 82.8 756
01:37:46 15 998 0 0 NO 0 82.5 755
01:40:47 15 998 0 0 S 0 81.9 757
01:43:47 15 998 0 0 S 0 82.2 763
01:46:48 15 998 0 0 S 0 81.9 768
01:49:47 15 998 0 0 SO 0 82.2 767
01:52:47 15 998 0 0 SO 0 82.2 767
01:55:47 15 998 0 0 SW 0 82.3 767
01:58:47 15 998 0 0 SO 0 82.5 761
02:01:47 15 998 0 0 SO 0 82.8 762
02:04:48 15 998 0 0 SO 0 82.4 758
02:07:49 15 998 0 0 NW 0 82.2 764
02:10:50 15 998 0 0 NW 0 83 770
02:13:46 15 998 0 3 S 0 82.7 771
02:16:47 15 998 0 2 SO 0 82.5 779
02:19:48 15 998 0 0 SO 0 82.5 780
02:22:47 15 998 0 2 S 0 82.5 779
02:25:50 15 998 0 0 SO 0 82.6 785
02:28:48 15 998 0 0 SO 0 82.7 785
02:31:48 15 998 0 0 SO 0 82.5 788
02:34:48 15 998 0 0 S 0 82.5 783
02:37:47 15 998 0 0 W 0 83.7 788
02:40:49 15 998 0 0 W 0 83.3 788
02:43:48 15 998 0 0 SO 0 83 794
02:46:49 15 998 0 1 S 0 82.8 803
02:49:48 15 998 0 1 S 0 82.9 805
02:52:48 15 998 0 1 SO 0 83.4 808
02:55:49 15 998 0 0 SO 0 83.6 803
02:58:49 15 998 0 0 SO 0 83.8 803
03:01:47 15 998 0 1 S 0 83.9 802
03:04:47 15 998 0 0 N 0 84.1 805
03:07:46 15 998 0 1 S 0 84.7 808
03:10:48 15 998 0 1 SO 0 84.6 805
03:13:47 15 998 0 4 S 0 84.6 802
03:16:47 15 998 0 2 SO 0 84.6 802
03:19:47 15 998 0 0 O 0 84.6 805
03:22:47 15 998 0 1 W 0 84.7 813
03:25:45 15 998 0 4 S 0 85.1 815
03:28:46 15 998 0 0 S 0 85.1 810
03:31:47 15 998 0 0 SO 0 85.3 816
03:34:47 15 998 0 0 SO 0 84.9 813
03:37:47 15 998 0 0 SO 0 85.1 818
03:40:47 15 998 0 0 O 0 85.3 815
03:43:47 15 998 0 0 SO 0 85.2 813
03:46:47 15 998 0 0 NW 0 85.4 814
03:49:46 15 998 0 0 SO 0 86.1 807
03:52:50 15 998 0 0 NW 0 86.1 811
03:55:48 15 998 0 0 NW 0 86.3 802
03:58:48 15 998 0 0 NW 0 86.3 806
04:01:45 15 998 0 0 O 0 86.7 805
04:04:47 15 998 0 0 NW 0 86.7 805
04:07:48 15 998 0 0 NW 0 86.9 814
04:10:47 15 998 0 0 NW 0 87.4 812
04:13:49 15 998 0 0 NW 0 88.3 816
04:16:47 15 998 0 0 NW 0 88.2 813
04:19:48 15 998 0 0 NW 0 88.8 812
04:22:48 15 998 0 0 NW 0 89 817
04:25:47 15 997 0 0 NW 0 90.1 807
04:28:50 14 998 0 0 NW 0 90.8 808
04:31:45 14 998 0 0 O 0 91 810
04:34:48 14 998 0 2 SO 0 90.8 816
04:37:45 14 998 0 4 S 0 90.8 822
04:40:47 14 998 0 1 SO 0 90.9 820
04:43:46 14 998 0 1 S 0 90.9 816
04:46:46 14 998 0 2 SO 0 90.9 816
04:49:45 14 998 0 0 S 0 91.1 820
04:52:46 14 998 0 2 SO 0.2575 91.2 821
04:55:47 14 998 0 2 S 0 91.4 823
04:58:46 14 998 0 1 SO 0 91.8 817
05:01:46 14 998 0 0 S 0 91.9 822
05:04:47 14 997 0 5 S 0 92.3 825
05:07:47 14 998 3 2 S 0 92.8 825
05:10:47 14 997 4 1 SO 0 93.2 823
05:13:47 14 998 5 4 S 0 93.2 825
05:16:46 14 997 6 4 S 0 93.4 825
05:19:47 14 996 6 7 S 0 93.4 823
05:22:44 14 997 9 4 S 0 93.3 823
05:25:50 14 997 11 6 SO 0 93.7 820
05:28:46 14 997 15 6 S 0 93.8 820
05:31:47 14 997 17 3 S 0 93.9 820
05:34:47 14 997 22 2 S 0 93.7 825
05:37:48 14 997 28 3 SO 0 93.7 826
05:40:48 14 997 33 4 SW 0 93.5 818
05:43:48 14 997 43 3 SO 0 93.6 826
05:46:48 14 997 46 2 SW 0 93.7 824
05:49:48 14 997 61 3 S 0 93.8 820
05:52:46 14 997 70 1 S 0 94 831
05:55:48 14 997 76 2 SO 0 94.4 819
05:58:48 14 998 78 0 S 0 94.8 819
06:01:47 14 998 84 1 SO 0 94.6 831
06:04:45 14 997 93 1 S 0 94.8 828
06:07:48 14 997 96 7 S 0.2575 94.8 826
06:10:48 14 997 103 8 S 0 95.7 823
06:13:49 14 997 117 4 S 0 96.3 822
06:16:49 14 997 123 2 SO 0 96 823
06:19:49 14 997 131 4 SO 0 95.7 831
06:22:49 14 996 139 6 SO 0 95.8 829
06:25:46 14 997 136 6 S 0 95.7 817
06:28:46 14 997 131 4 S 0 96.1 816
06:31:49 14 996 136 6 SW 0 96.3 812
06:34:48 14 996 153 3 SO 0 96.2 814
06:37:49 14 996 161 3 SO 0 95.9 810
06:40:48 14 997 164 2 SO 0 95.8 809
06:43:48 14 997 170 0 O 0 95.8 813
06:46:47 14 996 175 0 O 0 95.8 817
06:49:48 14 997 176 0 SO 0 95.9 817
06:52:48 15 997 175 0 NO 0 95.9 815
06:55:47 15 997 175 0 O 0 96 811
06:58:47 15 997 177 0 O 0 95.8 810
07:01:48 15 997 180 0 O 0 95.8 817
07:04:47 15 996 185 2 SO 0 95.7 818
07:07:47 15 997 187 5 S 0 95.7 822
07:10:50 15 996 189 2 SO 0 95.9 817
07:13:47 15 996 191 4 S 0 95.8 821
07:16:49 15 996 142 2 SO 0 95.7 831
07:19:48 16 997 199 4 SW 0 95.6 733
07:22:50 16 996 202 3 S 0 95.6 638
07:25:46 16 997 203 0 O 0 95.5 677
07:28:48 16 997 202 2 S 0 95.4 749
07:31:47 16 997 199 8 SO 0 95.3 779
07:34:49 16 996 196 6 S 0 94.2 797
07:37:48 16 996 196 6 SO 0 93.7 811
07:40:45 16 997 195 4 S 0 93.2 817
07:43:47 16 996 195 4 S 0 93.1 821
07:46:47 16 997 201 4 S 0 92.7 818
07:49:49 16 996 202 8 SO 0 92.5 818
07:52:48 17 996 203 8 S 0 92.5 820
07:55:47 17 996 204 6 S 0 92.3 814
07:58:46 17 997 202 1 NO 0 92.1 810
08:01:49 17 997 203 0 NO 0 91.8 805
08:04:49 17 997 205 5 SO 0 91.4 799
08:07:47 17 997 207 5 O 0 90.8 794
08:10:52 18 997 208 2 SO 0 90.5 796
08:13:51 18 996 210 5 SO 0 90 790
08:16:48 18 996 210 3 SO 0 89.4 790
08:19:50 18 996 209 5 O 0 88.9 785
08:22:48 18 997 209 6 SO 0 88 788
08:25:49 19 996 211 6 S 0 87.3 775
08:28:47 19 997 210 1 SO 0 86 779
08:31:48 19 996 211 3 S 0 85.7 776
08:34:49 19 996 212 2 S 0 85.4 777
08:37:48 19 996 213 2 SO 0 84.6 773
08:40:47 19 996 213 1 O 0 81 765
08:43:50 19 996 214 1 SO 0 80 759
08:46:48 19 996 215 6 S 0 80.8 756
08:49:49 19 995 216 2 O 0 82 758
08:52:51 19 996 215 3 SO 0 82.5 756
08:55:48 20 996 213 1 O 0 82.1 752
08:58:49 20 995 215 1 SO 0 81.4 746
09:01:48 20 996 216 4 O 0 80.8 747
09:04:50 20 995 216 10 SO 0 80.2 740
09:07:50 20 995 216 11 S 0 80.1 735
09:10:47 20 995 217 4 S 0 80.2 732
09:13:49 20 996 215 1 0 78.3 734
09:16:49 20 995 210 3 SO 0 78.1 735
09:19:46 20 996 207 5 S 0 79.2 736
09:22:49 21 996 206 2 S 0 79 734
09:25:49 21 995 205 3 O 0 78.6 725
09:28:50 21 995 205 1 SO 0 78.1 722
09:31:46 21 995 205 4 S 0 76.7 720
09:34:48 21 995 203 6 S 0 77 715
09:37:49 21 995 201 9 S 0 77.3 706
09:40:48 21 995 202 2 S 0 77 700
09:43:49 20 995 199 6 SO 0 76 705
09:46:47 20 995 201 6 S 0 76.2 704
09:49:50 20 995 203 11 SO 0 75.3 705
09:52:46 20 995 203 9 S 0 75.3 702
09:55:52 21 995 204 0 SO 0 75.2 698
09:58:47 21 995 203 6 SO 0 74.4 691
10:01:49 21 995 205 6 W 0 74.3 691
10:04:48 21 995 206 0 SO 0 74.1 694
10:07:48 21 995 207 4 SO 0 74.3 694
10:10:47 21 995 214 9 NW 0 74.7 690
10:13:48 21 995 209 4 W 0 75 688
10:16:49 22 995 210 5 S 0 73.2 679
10:19:49 22 995 215 4 W 0 68.3 685
10:22:47 22 995 216 5 S 0 69.2 687
10:25:49 22 995 219 2 S 0 67.2 691
10:28:50 22 995 217 0 SW 0 66.4 688
10:31:47 22 995 214 0 SW 0 67.1 686
10:34:47 22 995 215 1 N 0 68.4 685
10:37:52 22 995 213 2 SW 0 67.9 688
10:40:50 22 995 213 6 W 0 62.3 688
10:43:48 22 995 217 6 W 0 62.5 685
10:46:49 22 995 220 4 SW 0 64 674
10:49:49 22 995 221 3 O 0 64.7 665
10:52:48 22 995 221 3 SW 0 64.4 669
10:55:47 22 995 224 7 W 0 63.6 665
10:58:48 22 995 221 4 W 0 62.8 668
11:01:46 23 995 217 5 O 0 61.8 671
11:04:49 23 995 215 5 W 0 60.8 670
11:07:49 23 995 219 4 SO 0 59 663
11:10:46 23 995 214 3 W 0 58.8 658
11:13:47 23 995 211 5 S 0 57.9 656
11:16:49 24 995 210 9 SW 0 56.3 659
11:19:31 22 995 208 3 SO 0 49.3 652
11:22:49 24 995 208 5 W 0 56.2 650
11:25:48 24 995 208 2 SO 0 55.6 650
11:28:49 24 995 206 5 O 0 53.7 647
11:31:47 24 995 205 4 W 0 53.2 641
11:34:49 24 994 205 4 SW 0 54.2 641
11:37:32 23 995 205 3 NW 0 46.2 638
11:40:47 24 995 205 3 W 0 52.3 644
11:43:48 24 995 205 3 NW 0 53.4 638
11:46:47 24 995 206 8 S 0 55.9 632
11:49:47 24 995 206 5 W 0 54.7 641
11:52:46 24 995 207 13 W 0 53.8 630
11:55:47 25 995 207 3 NO 0 51.1 635
11:58:49 25 995 208 3 SW 0 50.9 629
12:01:50 26 995 209 3 S 0 50.9 623
12:04:49 26 994 208 3 W 0 47.8 626
12:07:50 26 995 209 2 S 0 50.3 620
12:10:50 27 995 210 8 S 0 46.8 618
12:13:47 27 995 212 6 S 0 46.3 618
12:16:46 27 995 214 3 S 0 45.7 611
12:19:47 27 995 210 2 N 0 44.4 618
12:22:46 27 994 217 6 W 0 44.4 615
12:25:49 27 995 218 3 NW 0 43.7 618
12:28:49 28 995 218 5 S 0 43.6 612
12:31:51 28 995 221 10 SW 0 41.5 603
12:34:48 28 995 219 2 NW 0 41.5 603
12:37:48 28 994 221 25 W 0 41.6 600
12:40:48 29 995 219 1 O 0 41.1 600
12:43:48 29 995 222 6 W 0 41.1 604
12:46:46 29 995 226 5 S 0 39.8 606
12:49:52 29 995 223 2 SW 0 41.5 602
12:52:48 29 995 221 7 SW 0 40 597
12:55:30 28 994 226 5 W 0 40 594
12:58:46 29 995 224 1 W 0 42.9 595
13:01:50 29 995 224 23 SW 0 36.6 593
13:04:47 29 995 228 5 S 0 39.8 596
13:07:49 30 994 227 1 W 0 40.6 588
13:10:48 30 995 222 5 W 0 39.7 585
13:13:49 29 994 220 3 S 0 39 585
13:16:46 29 994 221 1 N 0 40.3 585
13:19:47 30 994 221 3 W 0 38.4 574
13:22:47 30 994 224 4 SO 0 38.1 574
13:25:46 31 993 226 11 W 0 37.1 579
13:28:47 30 994 229 1 SO 0 36.1 582
13:31:46 30 993 229 3 W 0 35.7 585
13:34:48 30 994 226 3 NW 0 37.1 577
13:37:47 30 995 231 9 W 0 38.1 571
13:40:49 30 994 229 2 S 0 37.6 565
13:43:48 30 993 229 5 S 0 36.4 566
13:46:47 30 994 229 4 S 0 35.1 562
13:49:47 30 994 230 4 W 0 35.9 553
13:52:49 29 993 232 1 N 0 34.8 557
13:55:48 29 994 234 4 SW 0 36.5 565
13:58:47 29 993 232 14 W 0 37.1 559
14:01:50 29 994 229 2 SW 0 35.8 559
14:04:48 29 994 235 2 SW 0 37.4 550
14:07:46 29 994 234 2 S 0 38.4 553
14:10:50 30 994 237 8 SW 0 37.2 554
14:13:47 31 994 231 2 SO 0 36.8 562
14:16:47 31 993 239 2 S 0 34.9 554
14:19:46 31 993 232 5 S 0 34.6 553
14:22:51 31 992 236 8 SW 0 35.4 551
14:25:49 30 993 230 8 SW 0 35.8 548
14:28:50 30 994 236 2 NW 0 36.8 547
14:31:47 29 993 234 7 SO 0 36.6 542
14:34:46 29 993 234 3 S 0 35.8 538
14:37:50 29 994 236 3 SW 0 35.8 544
14:40:48 29 994 232 2 W 0 35.9 541
14:43:47 29 993 233 12 S 0 34.9 538
14:46:48 29 993 243 4 S 0 38.1 533
14:49:47 30 994 244 4 SW 0 38.1 533
14:52:49 30 992 244 3 SW 0 36.2 529
14:55:49 31 993 243 1 SO 0 33.4 524
14:58:48 31 994 244 2 W 0 33.1 527
15:01:48 31 994 244 4 S 0 34.4 527
15:04:47 31 994 234 7 SO 0 32.5 526
15:07:49 31 992 240 4 NW 0 31.9 525
15:10:49 30 992 242 24 SW 0 33.1 524
15:13:49 30 993 232 2 NW 0 33.4 527
15:16:49 30 992 234 4 SW 0 34.4 527
15:19:47 30 993 236 1 S 0 36 524
15:22:48 30 992 243 8 NW 0 36.2 451
15:25:46 30 993 237 5 O 0 35.5 451
15:28:49 30 993 235 3 SW 0 36.4 452
15:31:49 30 993 240 9 S 0 34.8 442
15:34:47 30 993 234 4 N 0 34.2 448
15:37:49 29 993 236 4 SO 0 36.5 454
15:40:48 29 992 237 2 S 0 36.9 457
15:43:49 29 992 236 2 W 0 37.6 454
15:46:49 29 992 239 7 NW 0 37.7 447
15:49:47 29 993 239 4 SO 0 37.2 451
15:52:46 29 993 246 3 S 0 36.7 448
15:55:48 30 992 246 4 O 0 37 450
15:58:46 30 993 243 3 S 0 36.2 445
16:01:51 31 993 246 2 SO 0 35.2 439
16:04:49 31 992 247 15 W 0 34.2 445
16:07:49 31 992 247 4 W 0 34 443
16:10:47 31 992 243 5 W 0 35.2 436
16:13:46 31 992 247 7 S 0 34.8 439
16:16:48 31 991 247 6 W 0 34.4 433
16:19:46 32 991 246 4 SW 0 33.6 433
16:22:47 32 992 247 2 NO 0 32 427
16:25:49 32 992 247 0 SO 0 32.4 421
16:28:46 32 992 246 2 O 0 31.9 421
16:31:51 32 992 246 2 SW 0 31 427
16:34:48 32 991 246 3 SO 0 32 418
16:37:49 32 992 246 1 SO 0 32.1 418
16:40:47 32 992 247 1 SW 0 32.4 409
16:43:48 32 992 246 2 SO 0 32 413
16:46:45 33 991 247 7 O 0 30.5 413
16:49:47 33 991 247 3 SO 0 30.4 416
16:52:46 33 992 247 2 W 0 31.6 412
16:55:45 33 991 247 1 S 0 31.5 412
16:58:49 33 991 247 5 NW 0 30.8 410
17:01:49 33 991 247 4 SW 0 30.1 412
17:04:46 33 991 246 3 S 0 29.4 404
17:07:48 33 991 247 1 O 0 29.5 406
17:10:47 32 991 247 4 NO 0 30.2 406
17:13:47 32 991 247 6 S 0 30.1 406
17:16:46 32 991 247 1 W 0 30.3 401
17:19:48 33 991 246 1 SO 0 30.4 412
17:22:49 33 991 247 6 SW 0 29.4 425
17:25:49 33 991 246 2 SO 0 29.4 436
17:28:47 33 991 243 1 NW 0 29.9 451
17:31:47 33 991 246 1 NW 0 30 459
17:34:46 33 991 246 2 S 0 29.5 463
17:37:46 33 991 246 2 W 0 29 452
17:40:49 33 992 246 1 NW 0 29.8 442
17:43:49 33 991 246 1 NW 0 30.5 438
17:46:50 33 991 244 1 SW 0 30.6 440
17:49:50 33 991 246 2 SO 0 30.9 446
17:52:47 33 991 242 1 S 0 31.4 480
17:55:47 33 991 245 0 S 0 30 483
17:58:49 33 991 244 2 SW 0 29.3 492
18:01:48 32 991 245 1 S 0 29.4 495
18:04:47 32 991 245 3 W 0 31.6 510
18:07:48 32 991 244 0 SO 0 31.9 518
18:10:48 31 991 241 2 S 0 33.8 521
18:13:49 29 991 235 2 SW 0 33.9 527
18:16:51 29 991 229 0 SW 0 36.7 538
18:19:50 28 991 229 1 SW 0 36.9 542
18:22:48 28 991 230 0 SW 0 38.1 547
18:25:47 28 991 232 4 SW 0 38.5 547
18:28:49 28 991 228 1 W 0 38.9 548
18:31:48 28 991 227 2 S 0 39.7 544
18:34:48 27 991 231 1 SO 0 40.6 548
18:37:49 27 991 222 0 S 0 41.1 551
18:40:47 27 991 232 1 W 0 41.9 560
18:43:48 27 991 237 0 NW 0 41.9 565
18:46:50 26 991 224 0 SO 0 42.8 572
18:49:47 26 991 221 0 O 0 43.3 578
18:52:49 26 991 213 1 S 0 43.8 585
18:55:50 26 991 195 0 NW 0 44.2 594
18:58:47 26 991 205 0 S 0 44.7 597
19:01:46 26 991 215 1 S 0 44.8 612
19:04:48 26 991 209 1 S 0 45.4 623
19:07:50 26 991 212 0 S 0 45.1 632
19:10:50 26 991 212 0 SO 0 44.3 644
19:13:48 26 991 219 3 W 0 44.8 647
19:16:48 25 991 222 0 SO 0 45 635
19:19:45 25 991 221 1 S 0 45.4 634
19:22:50 26 991 221 6 W 0 44.8 629
19:25:48 26 991 216 3 SW 0 44.7 624
19:28:49 26 991 220 0 S 0 44.5 624
19:31:48 26 991 218 0 SO 0 44.7 624
19:34:47 26 991 213 0 S 0 44.8 617
19:37:45 26 991 212 0 S 0 45 615
19:40:48 26 991 201 0 W 0 45.2 612
19:43:46 25 991 196 1 W 0 45.4 615
19:46:47 25 991 193 0 SO 0 45.8 612
19:49:47 25 991 194 0 S 0 46.3 608
19:52:48 25 991 187 0 S 0 47.2 606
19:55:46 24 991 181 0 S 0 47.6 601
19:58:49 24 991 168 0 W 0 48.8 600
20:01:48 24 991 162 1 S 0 49.5 597
20:04:48 24 991 174 0 SO 0 50 597
20:07:51 23 991 166 0 SO 0 51 604
20:10:48 23 991 158 0 SO 0 51.4 618
20:13:47 23 991 126 0 W 0 51.4 624
20:16:47 23 991 131 0 S 0 51.6 633
20:19:50 23 992 118 0 S 0 52.2 635
20:22:51 23 991 120 0 O 0 52.7 639
20:25:48 22 991 137 0 O 0 53 642
20:28:49 22 991 131 0 N 0 53.6 653
20:31:48 22 991 117 0 W 0 53.5 650
20:34:49 22 991 138 0 S 0 53.4 665
20:37:49 22 991 143 0 SW 0 53.6 677
20:40:48 22 991 139 0 S 0 53.7 679
20:43:46 22 991 131 0 S 0 54 679
20:46:50 22 991 122 0 SO 0 53.7 685
20:49:50 22 991 111 0 SO 0 54 688
20:52:48 22 991 96 0 SW 0 54 697
20:55:47 21 991 89 0 0 54.4 698
20:58:46 21 991 76 3 S 0 54.3 700
21:01:49 21 991 61 3 SW 0 54.8 700
21:04:49 21 991 47 0 SO 0 55.2 710
21:07:47 21 991 37 0 S 0 55.3 718
21:10:49 21 991 25 0 S 0 55.6 721
21:13:49 20 991 22 0 S 0 55.8 726
21:16:48 20 991 18 0 SW 0 56 738
21:19:46 20 991 13 0 S 0 56.5 747
21:22:46 20 991 9 0 S 0 56.8 756
21:25:47 20 991 7 0 S 0 57.3 750
21:28:48 20 991 5 0 SO 0 57.4 761
21:31:45 20 991 4 0 SO 0 57.4 755
21:34:48 20 992 4 0 W 0 57.6 763
21:37:46 20 991 3 0 SW 0 57.9 772
21:40:46 19 991 3 0 SO 0 57.8 770
21:43:44 19 992 3 0 S 0 57.8 773
21:46:48 19 991 0 0 SO 0 58.6 768
21:49:48 19 992 0 0 SO 0 58.7 775
21:52:48 19 991 0 0 SO 0 58.9 780
21:55:46 19 991 0 0 W 0 59 781
21:58:47 18 991 0 0 W 0 59.4 780
22:01:46 18 992 0 0 O 0 60.1 784
22:04:46 18 991 0 0 S 0 60.3 796
22:07:46 18 991 0 0 S 0 60.8 794
22:10:47 18 992 0 0 S 0 61.2 796
22:13:46 18 991 0 0 S 0 61.3 790
22:16:47 18 991 0 0 S 0 61.9 799
22:19:48 18 991 0 0 S 0 62.1 803
22:22:45 18 991 0 0 S 0 61.8 817
22:25:47 18 991 0 0 SW 0 61.9 816
22:28:50 18 992 0 1 SW 0 62.1 818
22:31:48 18 991 0 0 SW 0 62.4 808
22:34:47 18 991 0 0 SW 0 62.5 820
22:37:46 18 991 0 0 S 0 62.8 838
22:40:46 18 992 0 0 S 0 62.6 840
22:43:47 18 991 0 0 W 0 63 829
22:46:45 17 991 0 0 W 0 64.1 824
22:49:47 17 991 0 0 W 0 64.7 818
22:52:46 17 991 0 0 W 0 64.4 824
22:55:47 17 992 0 0 SO 0 64 828
22:58:48 17 991 0 0 SO 0 64.9 829
23:01:48 17 991 0 0 SO 0 65.2 827
23:04:47 17 991 0 0 SO 0 65.3 829
23:07:48 17 991 0 0 SO 0 64.8 841
23:10:48 17 991 0 0 SO 0 64.7 846
23:13:47 17 992 0 0 SO 0 64.7 850
23:16:45 17 991 0 0 SO 0 64.6 844
23:19:48 17 992 0 0 SO 0 64.8 840
23:22:47 17 992 0 0 SO 0 64.6 846
23:25:47 17 991 0 0 SO 0 64.9 840
23:28:45 17 992 0 0 S 0 65 837
23:31:47 17 992 0 0 S 0 65.8 838
23:34:49 17 991 0 0 S 0 65.8 834
23:37:46 17 991 0 0 N 0 65.8 816
23:40:45 17 991 0 0 N 0 65.9 823
23:43:45 17 991 0 0 N 0 66.6 831
23:46:48 17 992 0 0 N 0 67 826
23:49:49 17 991 0 0 SO 0 67.1 823
23:52:48 17 991 0 0 SO 0 67.6 815
23:55:47 17 992 0 1 NW 0 68.8 811
23:58:46 17 991 0 0 S 0 69.9 808

Letzte Änderung : 22-Jul-2022
Copyright Jens Köhler, Wolfsburg, Obere Dorfstraße 10d